Latest Weather Observations for Toolara

IDQ60801

Issued at 2:05 pm EST Saturday 25 October 2014 (issued every 30 minutes, with the page automatically refreshed every 10 minutes)

About weather observations | Map of weather stations | Latest weather observations for QLD | Other Formats
Station Details ID: 040555 Name: TOOLARA (KELLY) Lat: -25.97 Lon: 152.86 Height: 143.0 m
Data from the previous 72 hours. | See also: Recent months at Toolara
Date/Time
EST
Temp
°C
App
Temp
°C
Dew
Point
Rel
Hum
%
Delta-T
°C
Wind Press
QNH
hPa
Press
MSL
hPa
Rain
since 9 am
mm
Dir
 
Spd
km/h
Gust
km/h
Spd
kts
Gust
kts
25/02:00pm 27.5 26.2 13.8 43 8.2 - 13 20 7 11 - - -
25/01:30pm 28.6 27.6 15.5 45 8.1 - 15 20 8 11 - - -
25/01:00pm 27.0 23.9 14.4 46 7.6 - 24 32 13 17 - - -
25/12:30pm 27.7 - 15.0 45 7.7 - - - - - - - -
25/12:00pm 29.3 - 15.1 42 8.7 - - - - - - - -
25/11:30am 29.1 - 15.2 42 8.5 - - - - - - - -
25/11:00am 28.1 - 15.1 45 7.9 - - - - - - - -
25/10:30am 26.6 - 15.0 49 7.0 - - - - - - - -
25/10:00am 26.9 - 16.2 52 6.6 - - - - - - - -
25/09:30am 24.7 - 15.3 56 5.7 - - - - - - - -
25/09:00am 23.3 - 15.9 63 4.5 - - - - - - - 0.0
25/08:30am 21.6 - 14.7 65 4.1 - - - - - - - -
25/08:00am 21.2 20.0 15.1 68 3.6 - 15 19 8 10 - - -
25/07:30am 20.2 - 15.2 73 3.0 - - - - - - - -
25/07:00am 18.2 - 14.3 78 2.3 - - - - - - - -
25/06:30am 17.4 - 13.5 78 2.2 - - - - - - - -
25/06:00am 16.7 16.1 13.4 81 1.9 - 9 11 5 6 - - -
25/05:30am 16.4 - 13.3 82 1.7 - - - - - - - -
25/05:00am 15.8 - 13.3 85 1.4 - - - - - - - -
25/04:30am 15.1 - 12.6 85 1.4 - - - - - - - -
25/04:00am 16.6 - 13.1 80 2.0 - - - - - - - -
25/03:30am 16.1 - 12.7 80 1.9 - - - - - - - -
25/03:00am 17.1 - 13.4 79 2.1 - - - - - - - 0.0
25/02:30am 16.5 - 12.8 79 2.1 - - - - - - - -
25/02:00am 16.7 - 12.8 78 2.2 - - - - - - - -
25/01:30am 17.1 - 13.2 78 2.2 - - - - - - - -
25/01:00am 17.0 - 12.9 77 2.3 - - - - - - - -
25/12:30am 17.0 - 13.1 78 2.2 - - - - - - - -
25/12:00am 16.6 - 12.8 78 2.1 - - - - - - - -
 
Date/Time
EST
Temp
°C
App
Temp
°C
Dew
Point
Rel
Hum
%
Delta-T
°C
Wind Press
QNH
hPa
Press
MSL
hPa
Rain
since 9 am
mm
Dir
 
Spd
km/h
Gust
km/h
Spd
kts
Gust
kts
24/11:30pm 16.3 - 12.3 77 2.2 - - - - - - - -
24/11:00pm 17.5 - 12.8 74 2.6 - - - - - - - -
24/10:30pm 17.6 - 12.9 74 2.6 - - - - - - - -
24/10:00pm 17.9 - 13.0 73 2.8 - - - - - - - -
24/09:30pm 17.9 - 12.8 72 2.9 - - - - - - - -
24/09:00pm 18.1 - 12.8 71 3.0 - - - - - - - 0.0
24/08:30pm 18.3 - 13.0 71 3.0 - - - - - - - -
24/08:00pm 18.1 - 13.0 72 2.9 - - - - - - - -
24/07:30pm 18.1 - 12.8 71 3.0 - - - - - - - -
24/07:00pm 18.2 - 12.6 70 3.1 - - - - - - - -
24/06:30pm 18.6 - 12.6 68 3.4 - - - - - - - -
24/06:00pm 19.0 - 12.5 66 3.7 - - - - - - - -
24/05:30pm 19.8 - 12.8 64 4.0 - - - - - - - -
24/05:00pm 20.4 - 13.4 64 4.0 - - - - - - - -
24/04:30pm 21.0 - 13.2 61 4.5 - - - - - - - -
24/04:00pm 21.9 - 13.5 59 4.9 - - - - - - - -
24/03:30pm 22.8 - 13.8 57 5.3 - - - - - - - -
24/03:00pm 23.5 - 13.9 55 5.7 - - - - - - - 0.0
24/02:30pm 24.0 - 13.5 52 6.2 - - - - - - - -
24/02:00pm 25.5 - 14.3 50 6.7 - - - - - - - -
24/01:30pm 26.1 - 14.2 48 7.1 - - - - - - - -
24/01:00pm 26.8 - 14.9 48 7.2 - - - - - - - -
24/12:30pm 27.1 - 15.8 50 7.0 - - - - - - - -
24/12:00pm 26.0 - 15.1 51 6.6 - - - - - - - -
24/11:30am 25.7 - 14.8 51 6.6 - - - - - - - -
24/11:00am 27.0 - 16.0 51 6.8 - - - - - - - -
24/10:30am 24.5 - 14.9 55 5.8 - - - - - - - -
24/10:00am 24.6 - 15.5 57 5.5 - - - - - - - -
24/09:30am 22.5 - 14.4 60 4.8 - - - - - - - -
24/09:00am 21.6 - 14.3 63 4.3 - - - - - - - 0.0
24/08:30am 21.3 - 15.4 69 3.5 - - - - - - - -
24/08:00am 19.9 - 14.9 73 2.9 - - - - - - - -
24/07:30am 18.7 - 14.4 76 2.5 - - - - - - - -
24/07:00am 17.5 - 13.8 79 2.1 - - - - - - - -
24/06:30am 17.0 - 13.3 79 2.1 - - - - - - - -
24/06:00am 16.6 - 13.3 81 1.9 - - - - - - - -
24/05:30am 16.0 - 12.9 82 1.7 - - - - - - - -
24/05:00am 15.8 - 12.7 82 1.7 - - - - - - - -
24/04:30am 15.5 - 12.4 82 1.7 - - - - - - - -
24/04:00am 16.0 - 12.7 81 1.8 - - - - - - - -
24/03:30am 16.4 - 12.9 80 2.0 - - - - - - - -
24/03:00am 16.6 - 12.9 79 2.1 - - - - - - - 0.0
24/02:30am 16.4 - 12.8 79 2.0 - - - - - - - -
24/02:00am 16.2 - 12.7 80 1.9 - - - - - - - -
24/01:30am 15.8 - 12.4 80 1.9 - - - - - - - -
24/01:00am 15.8 - 12.2 79 2.0 - - - - - - - -
24/12:30am 16.8 - 12.9 78 2.2 - - - - - - - -
24/12:00am 16.8 - 12.9 78 2.2 - - - - - - - -
 
Date/Time
EST
Temp
°C
App
Temp
°C
Dew
Point
Rel
Hum
%
Delta-T
°C
Wind Press
QNH
hPa
Press
MSL
hPa
Rain
since 9 am
mm
Dir
 
Spd
km/h
Gust
km/h
Spd
kts
Gust
kts
23/11:30pm 16.3 - 12.3 77 2.2 - - - - - - - -
23/11:00pm 16.4 - 12.2 76 2.3 - - - - - - - -
23/10:30pm 16.5 - 12.1 75 2.4 - - - - - - - -
23/10:00pm 17.0 - 12.7 76 2.4 - - - - - - - -
23/09:30pm 17.1 - 12.6 75 2.5 - - - - - - - -
23/09:00pm 17.1 - 12.4 74 2.6 - - - - - - - 0.0
23/08:30pm 17.1 - 12.4 74 2.6 - - - - - - - -
23/08:00pm 17.3 - 12.4 73 2.7 - - - - - - - -
23/07:30pm 17.7 - 12.2 70 3.1 - - - - - - - -
23/07:00pm 17.6 - 12.1 70 3.0 - - - - - - - -
23/06:30pm 17.7 - 11.9 69 3.2 - - - - - - - -
23/06:00pm 18.6 - 11.9 65 3.7 - - - - - - - -
23/05:30pm 19.4 - 11.9 62 4.2 - - - - - - - -
23/05:00pm 20.1 - 11.8 59 4.6 - - - - - - - -
23/04:30pm 20.7 - 11.3 55 5.2 - - - - - - - -
23/04:00pm 21.8 - 11.8 53 5.6 - - - - - - - -
23/03:30pm 23.2 - 12.2 50 6.3 - - - - - - - -
23/03:00pm 23.7 - 11.7 47 6.8 - - - - - - - 0.0
23/02:30pm 25.7 - 12.9 45 7.5 - - - - - - - -
23/02:00pm 26.1 - 12.5 42 7.9 - - - - - - - -
23/01:30pm 27.0 - 11.9 39 8.7 - - - - - - - -
23/01:00pm 27.2 - 11.7 38 8.9 - - - - - - - -
23/12:30pm 27.7 - 12.5 39 8.9 - - - - - - - -
23/12:00pm 26.7 - 12.0 40 8.5 - - - - - - - -
23/11:30am 26.6 - 13.3 43 7.9 - - - - - - - -
23/11:00am 25.1 - 13.3 48 6.9 - - - - - - - -
23/10:30am 23.0 - 12.6 52 6.0 - - - - - - - -
23/10:00am 23.8 - 12.8 50 6.4 - - - - - - - -
23/09:30am 23.4 - 13.8 54 5.6 - - - - - - - -
23/09:00am 23.1 - 14.1 57 5.3 - - - - - - - 0.4
23/08:30am 22.1 - 14.7 63 4.4 - - - - - - - -
23/08:00am 19.5 - 13.7 69 3.3 - - - - - - - -
23/07:30am 18.2 - 14.3 78 2.3 - - - - - - - -
23/07:00am 16.1 - 13.0 82 1.7 - - - - - - - -
23/06:30am 14.9 - 12.2 84 1.5 - - - - - - - -
23/06:00am 14.6 - 11.7 83 1.6 - - - - - - - -
23/05:30am 14.7 - 11.8 83 1.6 - - - - - - - -
23/05:00am 14.7 - 11.8 83 1.6 - - - - - - - -
23/04:30am 15.0 - 12.0 82 1.6 - - - - - - - -
23/04:00am 14.8 - 11.8 82 1.6 - - - - - - - -
23/03:30am 14.9 - 11.9 82 1.6 - - - - - - - -
23/03:00am 14.8 - 11.8 82 1.6 - - - - - - - 0.0
23/02:30am 14.8 - 11.6 81 1.7 - - - - - - - -
23/02:00am 15.4 - 11.6 78 2.1 - - - - - - - -
23/01:30am 15.6 - 12.0 79 2.0 - - - - - - - -
23/01:00am 15.4 - 11.8 79 2.0 - - - - - - - -
23/12:30am 15.4 - 11.8 79 2.0 - - - - - - - -
23/12:00am 15.5 - 12.1 80 1.9 - - - - - - - -
 
Date/Time
EST
Temp
°C
App
Temp
°C
Dew
Point
Rel
Hum
%
Delta-T
°C
Wind Press
QNH
hPa
Press
MSL
hPa
Rain
since 9 am
mm
Dir
 
Spd
km/h
Gust
km/h
Spd
kts
Gust
kts
22/11:30pm 15.7 - 11.9 78 2.1 - - - - - - - -
22/11:00pm 16.0 - 12.0 77 2.2 - - - - - - - -
22/10:30pm 16.1 - 12.1 77 2.2 - - - - - - - -
22/10:00pm 16.3 - 12.1 76 2.3 - - - - - - - -
22/09:30pm 16.3 - 11.9 75 2.4 - - - - - - - -
22/09:00pm 16.2 - 11.6 74 2.5 - - - - - - - 0.0
22/08:30pm 16.0 - 11.4 74 2.5 - - - - - - - -
22/08:00pm 16.0 - 11.0 72 2.7 - - - - - - - -
22/07:30pm 16.6 - 11.1 70 3.0 - - - - - - - -
22/07:00pm 16.8 - 10.9 68 3.2 - - - - - - - -
22/06:30pm 17.2 - 11.0 67 3.4 - - - - - - - -
22/06:00pm 17.9 - 11.0 64 3.8 - - - - - - - -
22/05:30pm 18.7 - 11.0 61 4.2 - - - - - - - -
22/05:00pm 19.2 - 11.0 59 4.5 - - - - - - - -
22/04:30pm 19.9 - 11.1 57 4.8 - - - - - - - -
22/04:00pm 21.0 - 11.3 54 5.4 - - - - - - - -
22/03:30pm 21.5 - 10.9 51 5.9 - - - - - - - -
22/03:00pm 22.0 - 11.7 52 5.8 - - - - - - - 0.4
22/02:30pm 23.2 - 12.5 51 6.1 - - - - - - - -

Other Formats:

Comma delimited format used in spreadsheet applications
http://www.bom.gov.au/fwo/IDQ60801/IDQ60801.94558.axf

JavaScript Object Notation format (JSON) in row-major order
http://www.bom.gov.au/fwo/IDQ60801/IDQ60801.94558.json